COSMOS 2514 [GLONASS-M] 
1 41330U 16008A   19260.74542438 -.00000032  00000-0  00000-0 0  9997
2 41330  65.4127  36.6843 0010155 202.4838 171.4386  2.13103048 28100
FREGAT R/B              
1 41331U 16008B   19258.77654333 -.00000043  00000-0  00000-0 0  9998
2 41331  65.3807  38.3414 0071901 117.7911 242.9391  2.09388746 27580